BADR-4

Last updated on Sat Aug 22 2026 00:02:56 GMT+0000 (Coordinated Universal Time)

1 29526U 06051A 26233.48910792 .00000152 00000+0 00000+0 0 9998 2 29526 2.1677 80.3541 0005269 70.0460 29.9511 1.00273227 51927
UTC large
Height (km)
Speed (km/s)
/
Latitude / Longitude
Inclination (degrees)
Orbital Period (minutes)
Azimuth
Elevation
Range (km)
Doppler Factor

Next 0 passes for location: London (51.5072 / 0.1276)

No passes found over London.
BADR-4